Location: Berg
(47.2344°N, 9.5296°E)
Time: 11:53:30
(UTC+00:00)

Meteor 1-24 Rocket - Pass Details

Date: 24 January 2021
Orbit: 791 x 926 km, 81.3° (Epoch: 06 March)

Event Time Altitude Azimuth Distance (km) Brightness Sun altitude
Rises 17:01:31 0° 201° (SSW) 3,301 7.4 -8.5°
Reaches altitude 10° 17:03:57 10° 205° (SSW) 2,364 6.7 -8.9°
Maximum altitude 17:09:10 58° 285° (WNW) 926 4.3 -9.8°
Drops below altitude 10° 17:14:25 10° 4° (N) 2,371 5.8 -10.6°
Sets 17:16:51 0° 9° (N) 3,312 6.5 -11.0°
